Location: Slanting_Bridge
(35.6330°N, 80.9830°W)
Time: 01:20:18
(UTC-04:00)

Hamsat - Visible Passes

Search period start: 24 April 2017 00:00
Search period end: 04 May 2017 00:00
Orbit: 586 x 618 km, 97.6° (Epoch: 22 April)

Date Brightness Start Highest point End Pass type
(mag) Time Alt. Az. Time Alt. Az. Time Alt. Az.
24 Apr ? 05:44:13 10° N 05:48:32 67° WNW 05:52:47 10° SSW visible
25 Apr ? 04:22:32 10° ENE 04:24:15 12° E 04:25:59 10° ESE visible
25 Apr ? 05:56:05 10° N 06:00:15 47° WNW 06:04:23 10° SSW visible
26 Apr ? 04:33:19 10° NE 04:36:07 17° E 04:38:55 10° SE visible
26 Apr ? 06:08:02 10° N 06:11:57 34° WNW 06:15:51 10° SW visible
27 Apr ? 04:44:31 10° NE 04:47:58 23° E 04:51:23 10° SSE visible
28 Apr ? 04:55:56 10° NE 04:59:48 31° E 05:03:37 10° SSE visible
29 Apr ? 05:07:28 10° NNE 05:11:35 43° E 05:15:41 10° S visible
30 Apr ? 05:19:06 10° NNE 05:23:23 61° E 05:27:36 10° S visible
01 May ? 05:30:48 10° NNE 05:35:08 85° ESE 05:39:25 10° SSW visible
02 May ? 05:42:35 10° N 05:46:53 69° WNW 05:51:07 10° SSW visible
03 May ? 04:21:02 10° ENE 04:22:35 12° E 04:24:07 10° ESE visible
03 May ? 05:54:26 10° N 05:58:36 49° WNW 06:02:43 10° SSW visible
